Location: Decatur Area Astronomy Club
(40.0275°N, 88.7810°W)
Time: 15:02:37
(UTC-06:00)

Amateur Radio Satellites - All Passes

Search period start: 14 February 2016 14:32
Search period end: 15 February 2016 14:32
Location: Decatur Area Astronomy Club, 40.0275°N, 88.7810°W

Satellite Date Start Highest point End Downlink Frequencies (MHz)
Time Altitude Azimuth
RS-15 14 Feb 14:33:33 14:41:57 22° 347° (NNW) 14:50:39 29.354- 29.394
Gurwin Techsat 1B 14 Feb 14:47:48 14:50:42 15° 269° (W) 14:53:36 435.225
ITAMSAT 1 14 Feb 14:53:54 14:57:58 23° 266° (W) 15:02:04 435.822/435.867
STARS 14 Feb 14:59:11 15:02:25 20° 94° (E) 15:05:38 437.465
BEESAT 2 14 Feb 15:05:03 15:08:03 20° 112° (ESE) 15:11:03 435.950
ITUPSAT 1 14 Feb 15:10:01 15:13:57 25° 293° (WNW) 15:17:51 437.325
BEESAT 14 Feb 15:15:11 15:18:52 22° 294° (WNW) 15:22:32 436.000
KKS-1 14 Feb 15:29:19 15:33:47 84° 104° (ESE) 15:38:12 437.445
O/OREOS (USA 219) 14 Feb 15:43:53 15:47:33 23° 58° (ENE) 15:51:12 437.305
ISS 14 Feb 15:44:29 15:46:32 16° 343° (NNW) 15:48:35 145.825
Cubesat XI-IV 14 Feb 15:48:25 15:50:06 11° 58° (ENE) 15:51:47 437.490
AO-7 14 Feb 15:52:32 16:00:10 39° 261° (W) 16:07:51 29.400- 29.500
HORYU 2 14 Feb 15:54:01 15:58:20 56° 259° (W) 16:02:42 437.375
M-CUBED/EXP-1 PRIME 14 Feb 15:56:15 15:59:06 23° 258° (WSW) 16:01:51 437.505
MOZHAYETS 4 14 Feb 16:00:46 16:05:26 74° 102° (ESE) 16:10:04
AUBIESAT-1 14 Feb 16:01:09 16:04:05 24° 258° (WSW) 16:06:55 437.475
BEESAT 3 14 Feb 16:07:55 16:11:46 48° 305° (NW) 16:15:40 437.485
YUBILEINY 14 Feb 16:16:59 16:19:58 12° 286° (WNW) 16:22:57 435.215
LilacSat-2 14 Feb 16:19:15 16:20:30 11° 65° (ENE) 16:21:45 437.200
Cosmos 2491 14 Feb 16:21:26 16:28:12 25° 293° (WNW) 16:35:02 435.465 / 435.565
Cosmos 2504 14 Feb 16:22:42 16:30:44 50° 271° (W) 16:38:13 435.465 / 435.565
STARS 14 Feb 16:34:54 16:38:52 34° 290° (WNW) 16:42:49 437.465
AO-85 14 Feb 16:37:35 16:41:34 21° 42° (NE) 16:45:17 145.980
BEESAT 2 14 Feb 16:42:03 16:45:43 34° 308° (NW) 16:49:25 435.950
PCSat 14 Feb 16:46:15 16:47:35 11° 37° (NE) 16:48:55 145.827
RS-15 14 Feb 16:50:51 17:00:21 26° 24° (NNE) 17:10:02 29.354- 29.394
CUBESAT XI-V 14 Feb 16:56:25 17:00:28 28° 95° (E) 17:04:28 437.345
CUTE-I 14 Feb 17:08:38 17:13:52 62° 73° (ENE) 17:19:10 437.470
O/OREOS (USA 219) 14 Feb 17:22:50 17:27:02 36° 255° (WSW) 17:31:13 437.305
ISS 14 Feb 17:23:06 17:24:03 11° 4° (N) 17:25:00 145.825
Cubesat XI-IV 14 Feb 17:23:59 17:29:19 85° 75° (ENE) 17:34:42 437.490
DOVE 4 14 Feb 17:34:14 17:37:01 15° 65° (ENE) 17:39:46 437.250
BRITE-PL 14 Feb 17:38:18 17:43:54 65° 74° (ENE) 17:49:17 437.365/2234.400
MOZHAYETS 4 14 Feb 17:40:14 17:41:58 12° 298° (WNW) 17:43:42
AIST 2 14 Feb 17:40:36 17:44:46 82° 302° (WNW) 17:48:58 435.215
GONETS M04 14 Feb 17:46:53 17:53:01 20° 64° (ENE) 17:59:09
LilacSat-2 14 Feb 17:50:41 17:54:23 49° 261° (W) 17:58:05 437.200
STRAND 1 14 Feb 18:08:30 18:12:14 20° 93° (E) 18:15:57 437.568
CUTE 1.7 + AOD 2 14 Feb 18:10:36 18:12:12 12° 63° (ENE) 18:13:49 437.475
HO-68 14 Feb 18:15:33 18:21:43 32° 62° (ENE) 18:27:55 435.675
GOMX 1 14 Feb 18:16:59 18:22:19 79° 76° (ENE) 18:27:22 467.674
AO-85 14 Feb 18:17:31 18:22:32 58° 243° (WSW) 18:27:04 145.980
PCSat 14 Feb 18:26:50 18:32:12 57° 58° (ENE) 18:37:31 145.827
CUBESAT XI-V 14 Feb 18:33:47 18:37:46 28° 291° (WNW) 18:41:44 437.345
CUTE-I 14 Feb 18:51:09 18:54:20 16° 269° (W) 18:57:32 437.470
CANX-2 14 Feb 18:53:57 18:57:53 40° 72° (ENE) 19:01:52 2200.000
CUBEBUG 2 14 Feb 18:57:57 18:59:28 12° 64° (ENE) 19:00:58 437.445
ISS 14 Feb 18:58:50 19:01:26 22° 24° (NNE) 19:04:02 145.825
RS-15 14 Feb 19:03:45 19:15:52 65° 52° (NE) 19:28:06 29.354- 29.394
Cubesat XI-IV 14 Feb 19:08:39 19:10:02 11° 271° (W) 19:11:25 437.490
DOVE 4 14 Feb 19:09:22 19:14:19 60° 259° (W) 19:19:00 437.250
Cosmos 2499 14 Feb 19:14:59 19:22:02 30° 69° (ENE) 19:28:36 435.465 / 435.565
COMPASS 1 14 Feb 19:16:26 19:20:12 35° 71° (ENE) 19:24:01 437.405
BRITE-PL 14 Feb 19:19:10 19:22:41 17° 269° (W) 19:26:09 437.365/2234.400
PRISM 14 Feb 19:21:12 19:24:52 29° 97° (E) 19:28:30 437.425
AIST 2 14 Feb 19:22:45 19:23:57 11° 320° (NW) 19:25:09 435.215
CINEMA 3 14 Feb 19:24:19 19:28:50 69° 75° (ENE) 19:33:09 145.822/145.860
ZACube-1 14 Feb 19:28:32 19:30:22 13° 64° (ENE) 19:32:11 437.345
FUNcube-1 14 Feb 19:34:20 19:36:29 14° 65° (ENE) 19:38:39 145.935
AAUSAT CUBESAT 2 14 Feb 19:39:31 19:43:32 52° 74° (ENE) 19:47:37 437.432
SEEDS 14 Feb 19:39:59 19:44:10 89° 264° (W) 19:48:24 437.485
GONETS M04 14 Feb 19:42:07 19:50:57 85° 266° (W) 19:59:49
CUTE 1.7 + AOD 2 14 Feb 19:43:22 19:47:31 60° 259° (W) 19:51:43 437.475
STRAND 1 14 Feb 19:46:41 19:51:38 47° 289° (WNW) 19:56:34 437.568
Oscar 11 14 Feb 19:56:59 20:00:52 34° 71° (ENE) 20:04:46 145.826/435.025
GOMX 1 14 Feb 19:58:49 20:00:48 12° 270° (W) 20:02:46 467.674
HO-68 14 Feb 20:02:14 20:09:08 49° 260° (W) 20:16:06 435.675
DELFI C3 14 Feb 20:11:09 20:14:25 25° 69° (ENE) 20:17:42 145.870
PCSat 14 Feb 20:11:22 20:15:06 19° 255° (WSW) 20:18:48 145.827
UWE-3 14 Feb 20:20:27 20:24:39 71° 76° (ENE) 20:28:48 435.000/436.395/437.385
AIST 1 14 Feb 20:23:55 20:27:50 32° 77° (ENE) 20:31:42
CANX-2 14 Feb 20:31:19 20:33:55 16° 268° (W) 20:36:33 2200.000
CUBEBUG 2 14 Feb 20:31:24 20:35:37 60° 260° (W) 20:39:46 437.445
HUMSAT D 14 Feb 20:34:44 20:37:41 20° 67° (ENE) 20:40:39 437.325/437.525
ISS 14 Feb 20:34:53 20:38:05 56° 221° (SW) 20:41:14 145.825
COMPASS 1 14 Feb 20:53:01 20:55:53 18° 267° (W) 20:58:46 437.405
PRISM 14 Feb 20:56:49 21:00:02 22° 293° (WNW) 21:03:14 437.425
ZACube-1 14 Feb 21:02:08 21:06:12 53° 260° (W) 21:10:17 437.345
CINEMA 3 14 Feb 21:05:53 21:06:20 10° 270° (W) 21:06:48 145.822/145.860
Cosmos 2499 14 Feb 21:07:39 21:15:33 53° 270° (W) 21:22:50 435.465 / 435.565
FUNcube-1 14 Feb 21:08:20 21:12:21 47° 261° (W) 21:16:22 145.935
RS-15 14 Feb 21:16:56 21:27:46 40° 254° (WSW) 21:38:40 29.354- 29.394
AAUSAT CUBESAT 2 14 Feb 21:17:47 21:19:22 12° 270° (W) 21:20:56 437.432
PHONESAT 2.4 14 Feb 21:18:03 21:19:37 13° 147° (SSE) 21:21:11 2401.200-2431.200
VELOX 1 14 Feb 21:32:39 21:35:43 19° 65° (ENE) 21:38:48 145.980
UKube-1 14 Feb 21:32:48 21:35:32 17° 65° (ENE) 21:38:17 .
Oscar 11 14 Feb 21:33:57 21:37:05 19° 267° (W) 21:40:13 145.826/435.025
GONETS M04 14 Feb 21:41:41 21:46:22 16° 284° (WNW) 21:51:04
DELFI C3 14 Feb 21:46:04 21:49:16 23° 265° (W) 21:52:29 145.870
AISAT 14 Feb 21:49:27 21:53:17 29° 69° (ENE) 21:57:07 437.250
UNISAT 6 14 Feb 21:50:48 21:54:48 33° 97° (E) 21:58:52 437.425
CUBEBUG 1 14 Feb 21:53:13 21:56:50 25° 68° (ENE) 22:00:27 437.445
DX 1 14 Feb 21:53:26 21:57:19 32° 70° (ENE) 22:01:14 434.975-435.025
AIST 1 14 Feb 22:02:08 22:05:10 19° 273° (W) 22:08:11
HUMSAT D 14 Feb 22:09:30 22:13:07 31° 263° (W) 22:16:47 437.325/437.525
50 SAT 14 Feb 22:25:40 22:29:22 85° 77° (ENE) 22:33:07 437.505
ESTCUBE 1 14 Feb 22:32:46 22:37:18 89° 273° (W) 22:41:52 437.505/2401.250
POLYITAN 1 14 Feb 22:34:11 22:37:32 23° 95° (E) 22:40:53 437.675
QB50P2 14 Feb 22:34:29 22:37:55 24° 95° (E) 22:41:20 145.880/145.840
ANTELSAT 14 Feb 22:35:26 22:39:51 77° 283° (WNW) 22:44:19 437.575/2403.000
TIGRISAT 14 Feb 22:40:23 22:44:45 72° 285° (WNW) 22:49:12 435.000
PHONESAT 2.4 14 Feb 22:53:11 22:56:23 51° 161° (SSE) 22:59:35 2401.200-2431.200
TISAT 1 14 Feb 22:56:02 22:58:32 16° 65° (ENE) 23:01:01 437.305
POPSAT HIP 1 14 Feb 23:02:16 23:06:20 46° 99° (E) 23:10:23 437.405
CUSAT 1 14 Feb 23:02:18 23:05:24 13° 79° (E) 23:08:26 437.405
DUCHIFAT 1 14 Feb 23:02:19 23:06:18 43° 99° (E) 23:10:18 145.980
NANOSAT C BR1 14 Feb 23:03:24 23:07:28 47° 99° (E) 23:11:30 145.865
SPROUT 14 Feb 23:06:34 23:10:44 55° 74° (ENE) 23:14:56 437.525
UKube-1 14 Feb 23:07:05 23:11:14 44° 261° (W) 23:15:24 .
VELOX 1 14 Feb 23:07:40 23:11:53 41° 261° (W) 23:16:07 145.980
QB50P1 14 Feb 23:14:18 23:18:30 66° 102° (ESE) 23:22:39 145.935-145.965
BEESAT 2 14 Feb 23:24:13 23:26:10 13° 42° (NE) 23:28:06 435.950
AISAT 14 Feb 23:26:01 23:29:44 25° 264° (W) 23:33:27 437.250
UNISAT 6 14 Feb 23:27:58 23:31:20 22° 292° (WNW) 23:34:45 437.425
CUBEBUG 1 14 Feb 23:29:08 23:32:59 29° 264° (W) 23:36:52 437.445
DX 1 14 Feb 23:30:09 23:33:33 22° 265° (W) 23:36:57 434.975-435.025
BUGSAT 1 14 Feb 23:39:54 23:43:54 60° 101° (E) 23:47:51 437.445
SWISSCUBE 14 Feb 23:59:37 00:02:43 18° 64° (ENE) 00:05:51 437.505
Oscar 19 15 Feb 00:07:25 00:09:47 13° 90° (E) 00:12:10 437.125/150
POLYITAN 1 15 Feb 00:09:43 00:13:19 28° 291° (WNW) 00:16:56 437.675
QB50P2 15 Feb 00:10:07 00:13:42 27° 291° (WNW) 00:17:15 145.880/145.840
DANDE 15 Feb 00:18:21 00:25:13 31° 86° (E) 00:32:18 436.750
BEESAT 3 15 Feb 00:25:58 00:29:56 76° 56° (NE) 00:33:51 437.485
TISAT 1 15 Feb 00:29:48 00:33:50 44° 261° (W) 00:37:53 437.305
PHONESAT 2.4 15 Feb 00:30:18 00:33:35 80° 358° (N) 00:36:52 2401.200-2431.200
Cosmos 2491 15 Feb 00:33:28 00:41:13 34° 71° (ENE) 00:48:57 435.465 / 435.565
ITUPSAT 1 15 Feb 00:37:59 00:42:21 37° 70° (ENE) 00:46:45 437.325
CUSAT 1 15 Feb 00:38:26 00:46:28 68° 95° (E) 00:54:10 437.405
DUCHIFAT 1 15 Feb 00:39:09 00:41:40 16° 295° (WNW) 00:44:11 145.980
POPSAT HIP 1 15 Feb 00:39:22 00:41:45 15° 295° (WNW) 00:44:07 437.405
NANOSAT C BR1 15 Feb 00:40:28 00:42:48 15° 295° (WNW) 00:45:09 145.865
BEESAT 15 Feb 00:42:32 00:47:00 41° 71° (ENE) 00:51:30 436.000
SPROUT 15 Feb 00:45:17 00:47:02 12° 269° (W) 00:48:47 437.525
QB50P1 15 Feb 00:52:35 00:53:43 11° 297° (WNW) 00:54:49 145.935-145.965
BEESAT 2 15 Feb 01:00:32 01:04:32 71° 240° (WSW) 01:08:28 435.950
JAS-2 15 Feb 01:10:33 01:15:36 38° 97° (E) 01:20:24 435.910
BUGSAT 1 15 Feb 01:17:44 01:18:46 11° 297° (WNW) 01:19:48 437.445
YUBILEINY 15 Feb 01:21:10 01:28:14 28° 82° (E) 01:35:19 435.215
Gurwin Techsat 1B 15 Feb 01:22:23 01:26:54 27° 95° (E) 01:31:23 435.225
ITAMSAT 1 15 Feb 01:28:16 01:31:16 15° 91° (E) 01:34:16 435.822/435.867
SWISSCUBE 15 Feb 01:35:29 01:40:06 51° 260° (W) 01:44:47 437.505
Oscar 19 15 Feb 01:44:29 01:49:36 69° 286° (WNW) 01:54:40 437.125/150
SO-50 15 Feb 01:52:50 01:53:06 10° 105° (ESE) 01:53:21 436.795
STARS 15 Feb 01:55:47 01:58:42 18° 65° (ENE) 02:01:37 437.465
DANDE 15 Feb 01:59:40 02:07:41 61° 284° (WNW) 02:16:02 436.750
AIST 2 15 Feb 02:02:42 02:06:45 51° 55° (NE) 02:10:45 435.215
AO-7 15 Feb 02:04:34 02:08:08 13° 88° (E) 02:11:42 29.400- 29.500
PHONESAT 2.4 15 Feb 02:07:35 02:10:51 68° 195° (SSW) 02:14:06 2401.200-2431.200
ITUPSAT 1 15 Feb 02:16:33 02:20:16 23° 265° (W) 02:24:02 437.325
BEESAT 15 Feb 02:21:30 02:24:57 20° 266° (W) 02:28:25 436.000
CUSAT 1 15 Feb 02:22:31 02:29:11 28° 291° (WNW) 02:35:36 437.405
KKS-1 15 Feb 02:26:27 02:30:53 70° 74° (ENE) 02:35:19 437.445
Cosmos 2491 15 Feb 02:29:57 02:38:20 53° 270° (W) 02:46:43 435.465 / 435.565
JAS-2 15 Feb 02:56:09 03:00:29 24° 296° (WNW) 03:04:36 435.910
MOZHAYETS 4 15 Feb 03:01:46 03:06:16 63° 74° (ENE) 03:10:50
Gurwin Techsat 1B 15 Feb 03:02:02 03:06:53 36° 291° (WNW) 03:11:41 435.225
ITAMSAT 1 15 Feb 03:05:59 03:11:09 63° 287° (WNW) 03:16:18 435.822/435.867
Cosmos 2504 15 Feb 03:06:37 03:13:46 30° 82° (E) 03:21:02 435.465 / 435.565
YUBILEINY 15 Feb 03:15:42 03:24:21 61° 281° (WNW) 03:33:07 435.215
SO-50 15 Feb 03:27:54 03:32:48 89° 116° (ESE) 03:37:48 436.795
STARS 15 Feb 03:30:34 03:34:44 42° 261° (W) 03:38:55 437.465
M-CUBED/EXP-1 PRIME 15 Feb 03:35:52 03:38:10 16° 101° (E) 03:40:33 437.505
AUBIESAT-1 15 Feb 03:40:29 03:42:42 15° 100° (E) 03:44:59 437.475
AIST 2 15 Feb 03:42:37 03:44:48 14° 251° (WSW) 03:46:58 435.215
PHONESAT 2.4 15 Feb 03:45:21 03:47:44 19° 210° (SSW) 03:50:07 2401.200-2431.200
HORYU 2 15 Feb 03:45:51 03:49:41 28° 96° (E) 03:53:30 437.375
DANDE 15 Feb 03:48:38 03:52:20 13° 303° (WNW) 03:56:02 436.750
AO-7 15 Feb 03:53:48 04:02:09 76° 106° (ESE) 04:10:26 29.400- 29.500
CUBESAT XI-V 15 Feb 03:59:09 04:03:03 26° 68° (ENE) 04:06:59 437.345
KKS-1 15 Feb 04:07:22 04:07:54 10° 270° (W) 04:08:25 437.445
MOZHAYETS 4 15 Feb 04:42:08 04:43:52 12° 270° (W) 04:45:36
Cosmos 2504 15 Feb 04:57:57 05:06:30 61° 281° (WNW) 05:15:20 435.465 / 435.565
M-CUBED/EXP-1 PRIME 15 Feb 05:09:43 05:12:50 30° 293° (WNW) 05:16:08 437.505
SO-50 15 Feb 05:11:02 05:14:00 16° 320° (NW) 05:16:59 436.795
AUBIESAT-1 15 Feb 05:14:05 05:17:19 33° 292° (WNW) 05:20:44 437.475
YUBILEINY 15 Feb 05:20:56 05:23:16 11° 304° (NW) 05:25:38 435.215
HORYU 2 15 Feb 05:22:26 05:26:09 26° 292° (WNW) 05:29:53 437.375
STRAND 1 15 Feb 05:23:38 05:27:54 27° 66° (ENE) 05:32:12 437.568
LilacSat-2 15 Feb 05:25:37 05:28:09 17° 93° (E) 05:30:42 437.200
CUTE-I 15 Feb 05:26:52 05:31:20 26° 95° (E) 05:35:46 437.470
CUBESAT XI-V 15 Feb 05:36:10 05:40:18 31° 264° (W) 05:44:30 437.345
Cubesat XI-IV 15 Feb 05:42:09 05:47:06 36° 97° (E) 05:52:01 437.490
BRITE-PL 15 Feb 05:45:41 05:48:48 18° 91° (E) 05:51:46 437.365/2234.400
AO-7 15 Feb 05:47:44 05:54:06 25° 305° (NW) 06:00:28 29.400- 29.500
O/OREOS (USA 219) 15 Feb 05:55:34 05:59:20 27° 103° (ESE) 06:03:08 437.305
PRISM 15 Feb 06:10:35 06:13:42 21° 67° (ENE) 06:16:50 437.425
GOMX 1 15 Feb 06:20:52 06:24:03 20° 93° (E) 06:27:09 467.674
GONETS M04 15 Feb 06:48:27 06:54:42 23° 80° (E) 07:00:57
Cosmos 2504 15 Feb 06:59:01 07:01:57 12° 304° (WNW) 07:04:55 435.465 / 435.565
LilacSat-2 15 Feb 06:59:12 07:02:32 30° 289° (WNW) 07:05:52 437.200
STRAND 1 15 Feb 07:02:17 07:06:56 35° 263° (W) 07:11:37 437.568
CUTE-I 15 Feb 07:06:29 07:11:27 39° 291° (WNW) 07:16:25 437.470
DOVE 4 15 Feb 07:09:21 07:13:10 34° 97° (E) 07:16:57 437.250
CINEMA 3 15 Feb 07:20:47 07:23:15 15° 93° (E) 07:25:44 145.822/145.860
Cubesat XI-IV 15 Feb 07:22:27 07:27:02 29° 294° (WNW) 07:31:35 437.490
BRITE-PL 15 Feb 07:23:19 07:27:30 36° 290° (WNW) 07:31:25 437.365/2234.400
SEEDS 15 Feb 07:25:47 07:28:28 16° 92° (E) 07:31:07 437.485
CUTE 1.7 + AOD 2 15 Feb 07:29:24 07:32:54 24° 95° (E) 07:36:23 437.475
HO-68 15 Feb 07:30:38 07:37:05 34° 97° (E) 07:43:29 435.675
O/OREOS (USA 219) 15 Feb 07:34:47 07:38:39 28° 300° (WNW) 07:42:33 437.305
PRISM 15 Feb 07:45:05 07:48:49 32° 262° (W) 07:52:35 437.425
Cosmos 2499 15 Feb 07:50:21 07:57:15 27° 82° (E) 08:04:09 435.465 / 435.565
GOMX 1 15 Feb 07:58:28 08:02:14 30° 290° (WNW) 08:05:52 467.674
UWE-3 15 Feb 08:11:50 08:14:15 15° 92° (E) 08:16:41 435.000/436.395/437.385
CANX-2 15 Feb 08:14:58 08:19:18 89° 290° (WNW) 08:23:36 2200.000
CUBEBUG 2 15 Feb 08:22:53 08:26:31 27° 96° (E) 08:30:14 437.445
AO-85 15 Feb 08:29:53 08:35:07 59° 117° (ESE) 08:40:32 145.980
COMPASS 1 15 Feb 08:34:58 08:39:12 74° 101° (E) 08:43:25 437.405
GONETS M04 15 Feb 08:41:54 08:50:33 73° 279° (W) 08:59:19
DOVE 4 15 Feb 08:47:48 08:50:38 18° 294° (WNW) 08:53:28 437.250
UNISAT 6 15 Feb 08:49:30 08:53:05 27° 69° (ENE) 08:56:41 437.425
ZACube-1 15 Feb 08:51:03 08:54:46 28° 96° (E) 08:58:30 437.345
AIST 1 15 Feb 08:53:05 08:56:21 21° 88° (E) 08:59:39
CINEMA 3 15 Feb 08:56:40 09:00:35 41° 287° (WNW) 09:04:34 145.822/145.860
FUNcube-1 15 Feb 08:56:49 09:00:38 31° 97° (E) 09:04:29 145.935
AAUSAT CUBESAT 2 15 Feb 08:57:47 09:02:00 74° 284° (WNW) 09:06:11 437.432
SEEDS 15 Feb 09:00:20 09:04:21 41° 288° (WNW) 09:08:21 437.485
CUTE 1.7 + AOD 2 15 Feb 09:05:02 09:08:43 28° 290° (WNW) 09:12:24 437.475
PCSat 15 Feb 09:07:35 09:12:53 60° 115° (ESE) 09:18:15 145.827
HO-68 15 Feb 09:18:06 09:24:52 45° 294° (WNW) 09:31:36 435.675
Oscar 11 15 Feb 09:20:15 09:24:38 79° 102° (ESE) 09:28:59 145.826/435.025
DELFI C3 15 Feb 09:23:50 09:27:44 44° 99° (E) 09:31:35 145.870
POLYITAN 1 15 Feb 09:27:01 09:29:44 17° 66° (ENE) 09:32:27 437.675
RS-15 15 Feb 09:27:11 09:37:09 41° 107° (ESE) 09:47:34 29.354- 29.394
QB50P2 15 Feb 09:27:15 09:30:03 18° 66° (ENE) 09:32:52 145.880/145.840
ANTELSAT 15 Feb 09:33:35 09:37:52 85° 80° (E) 09:42:09 437.575/2403.000
TIGRISAT 15 Feb 09:38:20 09:42:37 89° 268° (W) 09:46:53 435.000
Cosmos 2499 15 Feb 09:40:51 09:49:36 68° 280° (W) 09:58:27 435.465 / 435.565
UWE-3 15 Feb 09:46:51 09:50:55 45° 287° (WNW) 09:55:05 435.000/436.395/437.385
HUMSAT D 15 Feb 09:53:03 09:57:01 39° 98° (E) 10:01:00 437.325/437.525
DUCHIFAT 1 15 Feb 09:53:48 09:57:27 29° 70° (ENE) 10:01:07 145.980
POPSAT HIP 1 15 Feb 09:54:17 09:58:02 32° 70° (ENE) 10:01:47 437.405
NANOSAT C BR1 15 Feb 09:55:04 09:58:48 32° 71° (ENE) 10:02:34 145.865
CUBEBUG 2 15 Feb 09:59:36 10:03:04 25° 291° (WNW) 10:06:34 437.445
QB50P1 15 Feb 10:06:01 10:10:02 44° 72° (ENE) 10:14:03 145.935-145.965
AO-85 15 Feb 10:11:39 10:16:03 24° 316° (NW) 10:20:31 145.980
SO-50 15 Feb 10:21:51 10:23:36 12° 35° (NE) 10:25:20 436.795
UNISAT 6 15 Feb 10:26:16 10:29:46 24° 265° (W) 10:33:16 437.425
ESTCUBE 1 15 Feb 10:26:49 10:30:11 20° 94° (E) 10:33:31 437.505/2401.250
ZACube-1 15 Feb 10:27:29 10:30:56 24° 291° (WNW) 10:34:26 437.345
BUGSAT 1 15 Feb 10:28:55 10:32:47 38° 72° (ENE) 10:36:38 437.445
AIST 1 15 Feb 10:29:49 10:33:45 31° 284° (WNW) 10:37:41
FUNcube-1 15 Feb 10:33:24 10:36:42 22° 292° (WNW) 10:40:04 145.935
GONETS M04 15 Feb 10:45:00 10:49:06 14° 301° (WNW) 10:53:15
PCSat 15 Feb 10:52:34 10:56:42 22° 313° (NW) 11:00:52 145.827
UKube-1 15 Feb 10:55:01 10:58:50 30° 97° (E) 11:02:36 .
VELOX 1 15 Feb 10:58:24 11:02:30 37° 98° (E) 11:06:34 145.980
DELFI C3 15 Feb 11:00:01 11:02:15 14° 295° (WNW) 11:04:28 145.870
POLYITAN 1 15 Feb 11:01:16 11:05:14 40° 261° (W) 11:09:13 437.675
QB50P2 15 Feb 11:01:37 11:05:35 39° 262° (W) 11:09:32 145.880/145.840
DANDE 15 Feb 11:02:17 11:06:03 16° 59° (ENE) 11:09:17 436.750
AISAT 15 Feb 11:16:01 11:20:24 62° 101° (E) 11:24:44 437.250
DX 1 15 Feb 11:17:46 11:22:06 66° 102° (ESE) 11:26:23 434.975-435.025
CUBEBUG 1 15 Feb 11:17:47 11:22:03 52° 100° (E) 11:26:15 437.445
CUSAT 1 15 Feb 11:18:41 11:23:17 33° 70° (ENE) 11:26:50 437.405
JAS-2 15 Feb 11:21:58 11:27:14 22° 63° (ENE) 11:32:08 435.910
Oscar 19 15 Feb 11:23:10 11:26:51 20° 64° (ENE) 11:30:31 437.125/150
HUMSAT D 15 Feb 11:29:35 11:32:22 17° 293° (WNW) 11:35:08 437.325/437.525
DUCHIFAT 1 15 Feb 11:29:55 11:33:10 22° 265° (W) 11:36:26 145.980
POPSAT HIP 1 15 Feb 11:30:44 11:33:52 20° 266° (W) 11:37:01 437.405
NANOSAT C BR1 15 Feb 11:31:29 11:34:36 20° 266° (W) 11:37:44 145.865
50 SAT 15 Feb 11:31:32 11:35:19 63° 284° (WNW) 11:39:05 437.505
YUBILEINY 15 Feb 11:33:10 11:36:40 13° 57° (ENE) 11:40:09 435.215
RS-15 15 Feb 11:38:04 11:49:03 59° 310° (NW) 12:00:43 29.354- 29.394
Cosmos 2499 15 Feb 11:40:27 11:44:30 14° 301° (WNW) 11:48:35 435.465 / 435.565
QB50P1 15 Feb 11:43:39 11:46:02 15° 268° (W) 11:48:25 145.935-145.965
SO-50 15 Feb 12:00:16 12:05:05 66° 56° (ENE) 12:09:42 436.795
ESTCUBE 1 15 Feb 12:02:55 12:07:06 37° 289° (WNW) 12:11:15 437.505/2401.250
BUGSAT 1 15 Feb 12:05:37 12:08:18 17° 266° (W) 12:10:59 437.445
TISAT 1 15 Feb 12:14:39 12:18:14 27° 96° (E) 12:21:47 437.305
SPROUT 15 Feb 12:29:05 12:33:19 68° 286° (WNW) 12:37:32 437.525
UKube-1 15 Feb 12:31:18 12:34:44 23° 293° (WNW) 12:38:07 .
VELOX 1 15 Feb 12:35:31 12:38:44 20° 294° (WNW) 12:41:54 145.980
Gurwin Techsat 1B 15 Feb 12:42:42 12:47:38 41° 70° (ENE) 12:52:36 435.225
DANDE 15 Feb 12:43:51 12:50:01 64° 266° (W) 12:54:33 436.750
ITAMSAT 1 15 Feb 12:45:18 12:49:19 23° 65° (ENE) 12:53:21 435.822/435.867
BEESAT 15 Feb 12:45:53 12:47:05 11° 90° (E) 12:48:16 436.000
AISAT 15 Feb 12:54:27 12:56:21 13° 298° (WNW) 12:58:15 437.250
CUBEBUG 1 15 Feb 12:55:34 12:57:53 14° 296° (WNW) 13:00:12 437.445
DX 1 15 Feb 12:56:08 12:57:43 12° 298° (WNW) 12:59:17 434.975-435.025
Oscar 19 15 Feb 13:00:44 13:05:46 51° 260° (W) 13:10:48 437.125/150
CUSAT 1 15 Feb 13:01:52 13:04:59 17° 278° (W) 13:07:39 437.405
AO-7 15 Feb 13:02:20 13:08:17 22° 53° (NE) 13:14:13 29.400- 29.500
JAS-2 15 Feb 13:04:13 13:11:44 73° 257° (WSW) 13:18:31 435.910
ISS 15 Feb 13:13:36 13:16:49 61° 139° (SE) 13:20:02 145.825
YUBILEINY 15 Feb 13:26:33 13:35:23 67° 79° (E) 13:44:06 435.215
Cosmos 2491 15 Feb 13:34:02 13:41:50 39° 86° (E) 13:49:40 435.465 / 435.565
SWISSCUBE 15 Feb 13:36:14 13:40:48 42° 99° (E) 13:45:21 437.505
SO-50 15 Feb 13:42:36 13:44:57 14° 253° (WSW) 13:47:15 436.795
TISAT 1 15 Feb 13:50:27 13:53:47 23° 292° (WNW) 13:57:06 437.305
RS-15 15 Feb 13:56:00 14:04:48 24° 340° (NNW) 14:13:59 29.354- 29.394
ITUPSAT 1 15 Feb 14:16:18 14:21:09 84° 285° (WNW) 14:25:58 437.325
BEESAT 3 15 Feb 14:18:07 14:20:22 15° 110° (ESE) 14:22:38 437.485
KKS-1 15 Feb 14:19:42 14:21:58 14° 92° (E) 14:24:14 437.445
BEESAT 15 Feb 14:20:34 14:25:22 75° 285° (WNW) 14:30:09 436.000
M-CUBED/EXP-1 PRIME 15 Feb 14:22:59 14:25:25 18° 64° (ENE) 14:27:47 437.505
Gurwin Techsat 1B 15 Feb 14:23:27 14:27:42 24° 266° (W) 14:31:58 435.225
AUBIESAT-1 15 Feb 14:27:11 14:29:27 17° 64° (ENE) 14:31:40 437.475
